RH
63 60 72 77 72 96 72 92 83 87 94 91 92 95 78 73 56 56 62 64 64 61 57 49 47 46 46 44 41 38 38 36 32 29 26 24 22 22
82 72 61 62 69 57 61 63 77 90 88 99 89 98 96 91 67 70 71 75 79 68 54 52 50 49 43 39 37 30 24 19 16 14 12 12 11 11
97 78 64 56 62 69 74 94 81 87 97 99 100 99 100 97 84 90 88 86 86 61 63 54 42 41 34 24 20 17 14 11 9 8 7 6 6 7
75 65 62 97 56 78 98 89 85 100 99 98 98 98 99 90 98 98 96 79 65 70 51 45 36 26 22 17 14 9 6 5 4 4 4 5 5 5
69 69 75 68 67 77 95 98 98 98 99 96 96 98 99 99 98 99 69 73 62 52 42 28 26 21 15 11 7 5 4 4 4 5 6 7 8 9
56 53 57 54 87 86 85 89 100 99 98 98 99 100 100 100 84 60 68 55 50 39 31 27 23 18 12 6 4 4 5 7 7 7 9 11 14 16
60 47 60 79 100 97 85 74 97 100 99 100 99 100 87 75 73 55 48 34 34 32 25 27 18 11 6 5 7 8 7 6 6 8 8 9 11 13
43 61 70 92 85 78 98 99 100 98 99 99 94 91 80 61 44 31 27 29 25 29 21 17 9 6 9 14 14 10 7 13 14 18 16 14 16 16
77 64 100 99 92 98 98 99 100 99 91 76 75 63 38 27 22 22 19 14 12 14 8 7 6 12 16 18 28 27 29 29 32 36 38 21 21 26
78 100 99 98 95 99 99 98 75 54 41 30 24 20 15 12 9 8 7 7 8 7 6 8 14 14 17 54 50 42 34 32 32 36 42 30 20 28
99 95 99 96 82 64 49 36 26 22 16 10 8 6 5 5 5 5 6 5 5 13 16 13 17 14 47 64 51 42 39 40 43 47 48 53 53 26
100 90 64 51 41 28 23 18 13 10 6 4 4 4 5 6 5 4 5 10 16 18 20 16 18 30 45 69 63 62 66 63 64 58 59 58 62 61
53 45 35 27 22 16 13 11 8 4 4 4 6 6 4 3 4 11 16 16 22 24 22 16 21 48 46 36 70 70 71 74 72 72 65 68 67 62
33 27 20 17 16 10 5 4 4 4 6 6 3 3 5 12 18 22 24 28 30 28 23 17 38 48 47 39 48 67 73 72 69 74 80 76 71 60
24 19 16 10 6 4 4 4 6 6 5 4 6 13 18 23 27 34 34 38 39 32 22 24 45 50 50 36 41 54 59 78 79 82 85 98 77 73
19 15 10 8 6 4 5 7 6 6 9 13 17 24 29 33 34 39 43 42 45 45 30 25 40 57 66 58 52 71 76 70 76 74 70 94 93 73
18 12 10 5 4 7 8 7 8 10 16 22 30 35 40 43 43 45 43 44 42 42 42 29 27 40 45 52 62 79 86 90 82 76 55 62 73 75
14 10 5 5 9 9 9 11 15 19 25 30 35 42 48 50 50 47 44 43 43 45 38 25 23 26 28 32 75 90 86 94 98 95 79 66 99 83
11 6 5 7 10 11 16 21 26 31 34 38 41 45 48 50 51 52 50 46 47 46 46 32 27 24 29 38 82 70 70 89 93 100 81 50 46 59
8 5 6 10 12 17 24 30 36 42 45 48 46 48 51 52 53 54 50 44 43 43 49 45 29 22 25 35 84 100 88 85 83 87 95 100 100 99
7 6 10 13 17 25 29 33 42 46 49 54 54 50 52 59 59 54 50 43 37 36 39 43 34 20 17 46 84 100 100 89 85 90 96 89 97 100
6 12 13 17 23 27 32 36 42 48 52 54 56 58 53 52 59 57 51 45 39 34 36 43 37 26 18 71 87 94 100 100 97 93 88 83 77 87
11 14 17 19 29 33 39 47 53 52 51 54 57 60 62 55 53 50 46 44 37 33 36 42 32 19 18 72 95 100 98 100 100 100 98 89 91 79
Wind_Speed
49 46 46 46 47 49 49 49 53 50 50 51 51 56 55 53 55 54 56 58 62 67 65 65 67 68 69 68 69 69 69 70 72 74 75 77 78 79
52 48 46 47 48 49 51 54 54 53 52 50 55 54 54 58 58 61 64 68 68 67 68 69 70 69 67 67 69 71 73 74 76 79 81 84 86 88
48 51 50 50 50 54 53 50 56 55 51 52 58 58 63 64 63 64 68 71 70 70 71 70 70 69 70 71 72 73 76 80 84 88 91 95 97 99
59 54 53 54 54 63 54 51 56 50 52 54 61 64 65 66 69 70 73 71 71 72 71 72 72 72 74 75 77 80 85 90 95 99 101 99 96 92
59 55 52 53 59 59 59 54 60 61 54 55 56 58 61 66 71 72 71 72 72 72 74 74 75 77 80 82 85 90 94 93 84 74 69 70 71 71
53 54 54 55 57 67 60 58 60 58 62 62 57 62 63 68 72 73 72 71 71 75 77 78 80 84 87 89 89 82 73 68 71 74 76 77 78 77
49 51 53 60 60 62 62 62 62 68 66 60 63 63 65 69 72 71 70 71 73 78 80 83 86 90 88 77 67 67 69 71 66 60 57 57 57 59
48 51 52 61 62 61 64 60 64 62 61 62 65 63 67 68 69 71 72 74 77 83 84 85 88 75 61 62 67 69 62 54 50 45 41 40 42 45
48 48 58 56 54 60 63 50 54 58 63 64 62 64 67 70 72 75 78 81 82 85 86 80 65 51 58 62 58 55 53 50 43 39 39 35 35 36
47 40 54 46 49 45 48 51 54 55 58 62 66 71 74 78 81 83 85 85 83 78 67 47 48 50 54 52 53 52 50 44 40 40 38 34 30 29
37 42 40 44 45 47 48 50 53 58 63 69 74 78 82 85 86 84 81 74 59 46 46 40 48 49 45 47 47 44 45 44 44 42 40 37 36 32
33 37 40 42 44 46 50 54 59 65 71 77 82 84 81 79 76 69 54 39 35 38 43 41 47 44 36 37 38 41 45 46 44 44 40 36 35 34
32 34 37 41 46 51 57 62 67 73 79 81 77 75 71 64 49 32 30 33 36 40 43 41 43 39 35 32 37 41 42 43 43 42 42 37 33 29
32 37 42 47 53 58 62 66 72 72 67 67 62 52 38 26 26 29 32 35 38 39 42 44 38 36 34 32 34 38 42 44 42 37 37 37 34 26
36 41 46 50 55 60 62 63 60 60 56 43 29 22 24 26 29 32 34 35 37 39 42 42 37 34 33 31 33 38 39 40 41 33 30 32 34 27
39 44 50 55 61 62 58 51 47 37 26 23 24 25 28 30 32 32 33 32 35 39 41 40 37 36 33 35 38 37 38 33 33 27 24 26 27 25
45 51 55 59 57 49 43 36 28 28 26 28 30 31 31 31 31 31 30 31 34 35 36 38 37 35 35 37 37 39 35 32 31 25 23 25 29 25
49 54 57 54 45 38 32 29 28 31 32 33 33 31 30 30 30 31 31 31 33 35 35 35 35 35 35 37 45 45 38 32 30 30 26 24 27 32
53 57 58 47 38 33 30 30 30 31 32 32 31 30 30 30 30 30 30 31 32 34 36 37 38 38 33 29 34 44 40 34 27 25 25 24 25 30
57 61 51 37 32 30 31 31 32 33 32 30 30 30 30 30 30 30 30 31 31 32 33 36 38 40 39 32 27 31 40 35 31 29 28 28 27 28
62 56 36 29 28 30 30 31 31 32 32 32 31 31 32 31 31 31 31 33 33 33 33 35 39 43 43 38 36 32 32 40 38 37 31 25 24 27
60 38 28 25 27 27 27 27 30 31 32 31 32 31 32 32 32 32 32 31 33 34 33 35 38 42 40 36 35 32 29 33 39 38 39 34 24 23
45 31 27 26 26 25 26 27 29 31 32 33 34 33 32 31 32 33 33 33 34 34 34 34 36 40 39 36 38 37 35 35 33 32 34 38 37 32
Wind_Direction
262 266 269 270 275 280 287 281 287 275 285 285 279 291 281 288 290 292 291 294 295 292 291 290 289 289 289 288 288 287 286 285 283 282 280 278 276 274
261 267 270 271 274 279 282 284 287 278 278 283 285 284 280 291 291 290 289 292 293 291 291 290 290 290 288 287 287 286 285 285 284 282 279 277 274 272
271 269 272 272 276 278 282 278 289 274 275 281 282 285 278 287 287 290 293 293 293 293 292 292 292 291 291 289 288 286 285 284 282 281 279 277 274 271
266 269 271 271 279 280 278 281 284 279 284 280 280 278 280 285 286 289 293 293 294 294 293 293 292 291 289 289 288 288 288 286 285 282 280 278 279 278
266 269 272 273 271 275 284 280 283 283 278 283 283 283 283 286 288 291 293 295 294 293 293 293 292 292 292 292 293 292 292 290 287 286 285 283 281 279
269 271 274 276 276 277 280 282 285 281 276 280 284 291 291 290 291 291 293 293 294 294 293 293 294 294 294 295 297 295 291 290 291 289 287 285 282 278
271 273 276 270 270 276 280 282 279 286 276 279 284 288 291 289 291 293 293 293 294 293 294 296 297 298 299 299 294 294 295 295 296 299 297 294 291 284
267 268 270 272 282 282 284 280 279 282 278 280 290 295 294 293 292 293 294 295 294 295 297 297 297 298 297 298 298 298 297 301 304 306 304 301 295 285
268 269 270 269 279 282 279 280 278 281 291 298 297 294 291 292 294 294 293 293 294 294 295 296 294 297 298 299 297 297 300 304 307 308 307 300 301 296
272 268 277 279 280 279 280 290 292 295 297 297 297 296 296 295 294 294 294 295 295 296 295 293 295 298 301 296 295 299 303 307 309 312 313 306 295 300
277 284 278 281 289 292 293 297 301 301 300 298 297 295 294 294 294 294 294 295 293 289 292 300 298 301 300 296 297 300 305 309 311 314 317 313 315 299
280 290 295 295 296 299 300 300 301 301 300 297 295 295 295 295 294 295 295 291 292 292 294 300 302 300 296 294 296 301 304 307 308 308 309 312 312 317
291 295 298 299 300 303 305 304 303 301 297 297 297 297 297 297 299 297 296 297 297 299 301 303 304 302 298 283 297 301 303 305 307 306 305 305 304 310
303 303 304 306 308 308 308 305 300 300 299 299 301 301 303 306 307 303 302 302 303 305 308 310 308 307 299 286 294 302 307 305 307 309 301 301 303 299
305 307 309 309 311 311 306 304 304 305 306 307 309 312 312 309 307 306 306 306 309 312 314 314 314 312 307 297 301 305 307 306 308 310 300 297 300 301
306 309 312 314 318 316 312 310 313 314 318 319 318 314 311 309 308 306 306 309 315 317 318 318 320 320 317 311 309 310 310 310 307 308 297 293 298 297
315 319 320 321 318 314 317 321 321 322 320 317 315 313 312 310 309 309 308 308 314 316 314 316 319 323 321 316 314 315 320 320 317 310 293 298 300 302
319 321 324 321 320 323 322 323 324 320 318 318 316 314 311 312 312 311 312 311 315 317 316 319 320 323 327 328 321 319 324 325 320 311 306 295 296 294
322 327 326 321 320 320 322 322 321 320 319 319 318 314 312 310 312 311 314 317 318 319 318 318 320 323 327 327 318 315 321 321 321 314 310 294 286 288
327 328 322 316 316 320 322 320 318 319 319 318 318 317 315 315 313 314 316 317 317 318 319 319 320 327 326 322 321 315 315 320 318 315 310 304 298 289
327 325 314 313 319 324 324 322 321 321 321 321 320 319 318 316 316 313 314 316 318 319 322 323 326 327 324 327 325 321 317 317 318 320 320 318 307 300
327 315 305 309 319 323 330 334 333 331 328 324 322 320 321 317 314 314 313 314 317 317 322 326 323 321 318 317 319 319 314 316 319 322 318 321 314 307
323 305 299 307 315 318 323 330 333 336 338 335 329 325 320 321 323 316 312 313 315 317 321 321 316 322 320 321 322 320 318 320 320 320 317 316 316 315